Location: Kernascl�den
(48.0062°N, 3.3198°W)
Time: 08:27:15
(UTC+00:00)

Cosmos 1937 Rocket - Visible Passes

Search period start: 11 May 2021 00:00
Search period end: 21 May 2021 00:00
Orbit: 746 x 780 km, 74.0° (Epoch: 10 May)

Date Brightness Start Highest point End Pass type
(mag) Time Alt. Az. Time Alt. Az. Time Alt. Az.
11 May 5.1 00:27:56 18° W 00:30:38 27° NW 00:35:03 10° N visible
11 May 4.3 22:09:31 29° ESE 22:10:09 30° E 22:14:35 10° NE visible
11 May 4.4 23:49:39 27° WSW 23:51:56 42° WNW 23:56:52 10° NNE visible
12 May 5.0 21:31:11 17° ESE 21:31:59 18° E 21:35:22 10° NE visible
12 May 3.6 23:11:18 36° SW 23:13:21 68° WNW 23:18:33 10° NNE visible
13 May 6.0 00:53:48 10° WNW 00:56:23 14° NW 00:58:58 10° NNW visible
13 May 3.4 22:32:53 37° S 22:34:53 74° ESE 22:40:04 10° NNE visible
14 May 5.7 00:13:40 10° W 00:17:27 20° NW 00:21:16 10° N visible
14 May 3.9 21:54:22 28° SSE 21:56:32 43° ESE 22:01:26 10° NE visible
14 May 5.1 23:34:28 12° WSW 23:38:39 30° NW 23:43:13 10° N visible
15 May 4.5 21:15:45 18° SE 21:18:18 26° E 21:22:33 10° NE visible
15 May 4.3 22:55:50 15° SW 22:59:59 47° WNW 23:05:01 10° NNE visible
16 May 6.4 00:42:47 10° NW 00:43:21 10° NW 00:43:54 10° NNW visible
16 May 5.1 20:37:12 10° SE 20:40:10 16° E 20:43:09 10° ENE visible
16 May 3.5 22:17:05 15° SSW 22:21:25 78° WNW 22:26:39 10° NNE visible
17 May 6.1 00:01:21 10° W 00:04:19 15° NW 00:07:19 10° N visible
17 May 3.4 21:38:08 11° S 21:42:59 64° ESE 21:48:08 10° NNE visible
17 May 5.7 23:21:25 10° WSW 23:25:25 22° NW 23:29:30 10° N visible
18 May 4.0 20:59:57 10° S 21:04:40 38° ESE 21:09:27 10° NE visible
18 May 5.0 22:42:00 10° WSW 22:46:40 34° WNW 22:51:24 10° N visible
19 May 4.7 20:22:29 10° SSE 20:26:27 23° E 20:30:28 10° NE visible
19 May 4.2 22:02:59 10° SW 22:08:02 54° WNW 22:13:08 10° NNE visible
19 May 6.4 23:49:38 10° WNW 23:51:16 11° NW 23:52:55 10° NNW visible
20 May 3.5 21:24:21 10° SSW 21:29:30 88° WNW 21:34:44 10° NNE visible
20 May 6.2 23:08:58 10° W 23:12:17 17° NW 23:15:37 10° N visible
